owner,sensor,date,latitude,longitude,vertical_datum,direction_of_sea_water_velocity,sea_water_speed,upward_sea_water_velocity,qcFlag 
ADCP,ioos:station:wmo:42377:1,2013-02-01T00:09:00Z,27.2930,-90.9680,21.3,234.0,33.9,-9999.0,'11111222,11111222,99999999' 
ADCP,ioos:station:wmo:42377:1,2013-02-01T00:29:00Z,27.2930,-90.9680,21.3,232.0,23.3,-9999.0,'11111222,11111222,99999999' 
ADCP,ioos:station:wmo:42377:1,2013-02-01T00:49:00Z,27.2930,-90.9680,21.3,233.0,23.1,-9999.0,'11111222,11111222,99999999' 
ADCP,ioos:station:wmo:42377:1,2013-02-01T01:09:00Z,27.2930,-90.9680,21.3,235.0,21.8,-9999.0,'11111222,11111222,99999999' 
ADCP,ioos:station:wmo:42377:1,2013-02-01T01:29:00Z,27.2930,-90.9680,21.3,221.0,15.4,-9999.0,'11111222,11111222,99999999' 
ADCP,ioos:station:wmo:42377:1,2013-02-01T01:49:00Z,27.2930,-90.9680,21.3,176.0,14.9,-9999.0,'11111222,11111222,99999999' 
ADCP,ioos:station:wmo:42377:1,2013-02-01T02:09:00Z,27.2930,-90.9680,21.3,95.0,17.0,-9999.0,'11111222,11111222,99999999' 
ADCP,ioos:station:wmo:42377:1,2013-02-01T02:29:00Z,27.2930,-90.9680,21.3,82.0,20.0,-9999.0,'11111222,11111222,99999999' 
ADCP,ioos:station:wmo:42377:1,2013-02-01T02:49:00Z,27.2930,-90.9680,21.3,87.0,26.8,-9999.0,'11111222,11111222,99999999' 
ADCP,ioos:station:wmo:42377:1,2013-02-01T03:09:00Z,27.2930,-90.9680,21.3,83.0,31.1,-9999.0,'11111222,11111222,99999999' 
ADCP,ioos:station:wmo:42377:1,2013-02-01T03:29:00Z,27.2930,-90.9680,21.3,84.0,34.3,-9999.0,'11111222,11111222,99999999' 
ADCP,ioos:station:wmo:42377:1,2013-02-01T03:49:00Z,27.2930,-90.9680,21.3,83.0,45.0,-9999.0,'11111222,11111222,99999999' 
ADCP,ioos:station:wmo:42377:1,2013-02-01T04:09:00Z,27.2930,-90.9680,21.3,86.0,52.2,-9999.0,'11111222,11111222,99999999' 
ADCP,ioos:station:wmo:42377:1,2013-02-01T04:29:00Z,27.2930,-90.9680,21.3,85.0,44.4,-9999.0,'11111222,11111222,99999999' 
ADCP,ioos:station:wmo:42377:1,2013-02-01T04:49:00Z,27.2930,-90.9680,21.3,83.0,50.9,-9999.0,'11111222,11111222,99999999' 
ADCP,ioos:station:wmo:42377:1,2013-02-01T05:09:00Z,27.2930,-90.9680,21.3,84.0,47.6,-9999.0,'11111222,11111222,99999999' 
ADCP,ioos:station:wmo:42377:1,2013-02-01T05:29:00Z,27.2930,-90.9680,21.3,87.0,47.1,-9999.0,'11111222,11111222,99999999' 
ADCP,ioos:station:wmo:42377:1,2013-02-01T05:49:00Z,27.2930,-90.9680,21.3,86.0,46.2,-9999.0,'11111222,11111222,99999999' 
ADCP,ioos:station:wmo:42377:1,2013-02-01T06:09:00Z,27.2930,-90.9680,21.3,96.0,40.8,-9999.0,'11111222,11111222,99999999' 
ADCP,ioos:station:wmo:42377:1,2013-02-01T06:29:00Z,27.2930,-90.9680,21.3,123.0,33.1,-9999.0,'11111222,11111222,99999999' 
ADCP,ioos:station:wmo:42377:1,2013-02-01T06:49:00Z,27.2930,-90.9680,21.3,166.0,26.9,-9999.0,'11111222,11111222,99999999' 
ADCP,ioos:station:wmo:42377:1,2013-02-01T07:09:00Z,27.2930,-90.9680,21.3,185.0,27.7,-9999.0,'11111222,11111222,99999999' 
ADCP,ioos:station:wmo:42377:1,2013-02-01T07:29:00Z,27.2930,-90.9680,21.3,203.0,31.2,-9999.0,'11111222,11111222,99999999' 
ADCP,ioos:station:wmo:42377:1,2013-02-01T07:49:00Z,27.2930,-90.9680,21.3,202.0,29.3,-9999.0,'11111222,11111222,99999999' 
ADCP,ioos:station:wmo:42377:1,2013-02-01T08:09:00Z,27.2930,-90.9680,21.3,204.0,29.0,-9999.0,'11111222,11111222,99999999' 
ADCP,ioos:station:wmo:42377:1,2013-02-01T08:29:00Z,27.2930,-90.9680,21.3,209.0,29.0,-9999.0,'11111222,11111222,99999999' 
ADCP,ioos:station:wmo:42377:1,2013-02-01T08:49:00Z,27.2930,-90.9680,21.3,211.0,27.8,-9999.0,'11111222,11111222,99999999' 
ADCP,ioos:station:wmo:42377:1,2013-02-01T09:09:00Z,27.2930,-90.9680,21.3,211.0,27.4,-9999.0,'11111222,11111222,99999999' 
ADCP,ioos:station:wmo:42377:1,2013-02-01T09:29:00Z,27.2930,-90.9680,21.3,211.0,24.3,-9999.0,'11111222,11111222,99999999' 
ADCP,ioos:station:wmo:42377:1,2013-02-01T09:49:00Z,27.2930,-90.9680,21.3,209.0,23.5,-9999.0,'11111222,11111222,99999999' 
ADCP,ioos:station:wmo:42377:1,2013-02-01T10:09:00Z,27.2930,-90.9680,21.3,209.0,20.6,-9999.0,'11111222,11111222,99999999' 
ADCP,ioos:station:wmo:42377:1,2013-02-01T10:29:00Z,27.2930,-90.9680,21.3,207.0,16.0,-9999.0,'11111222,11111222,99999999' 
ADCP,ioos:station:wmo:42377:1,2013-02-01T10:49:00Z,27.2930,-90.9680,21.3,212.0,16.8,-9999.0,'11111222,11111222,99999999' 
ADCP,ioos:station:wmo:42377:1,2013-02-01T11:09:00Z,27.2930,-90.9680,21.3,224.0,16.6,-9999.0,'11111222,11111222,99999999' 
ADCP,ioos:station:wmo:42377:1,2013-02-01T11:29:00Z,27.2930,-90.9680,21.3,235.0,17.1,-9999.0,'11111222,11111222,99999999' 
ADCP,ioos:station:wmo:42377:1,2013-02-01T11:49:00Z,27.2930,-90.9680,21.3,246.0,18.1,-9999.0,'11111222,11111222,99999999' 
ADCP,ioos:station:wmo:42377:1,2013-02-01T12:09:00Z,27.2930,-90.9680,21.3,240.0,13.3,-9999.0,'11111222,11111222,99999999' 
ADCP,ioos:station:wmo:42377:1,2013-02-01T12:29:00Z,27.2930,-90.9680,21.3,249.0,12.7,-9999.0,'11111222,11111222,99999999' 
ADCP,ioos:station:wmo:42377:1,2013-02-01T12:49:00Z,27.2930,-90.9680,21.3,252.0,7.9,-9999.0,'11133222,11111222,99999999' 
ADCP,ioos:station:wmo:42377:1,2013-02-01T13:09:00Z,27.2930,-90.9680,21.3,251.0,7.8,-9999.0,'11133222,11111222,99999999' 
ADCP,ioos:station:wmo:42377:1,2013-02-01T13:29:00Z,27.2930,-90.9680,21.3,271.0,6.8,-9999.0,'11133222,11111222,99999999' 
ADCP,ioos:station:wmo:42377:1,2013-02-01T13:49:00Z,27.2930,-90.9680,21.3,285.0,8.4,-9999.0,'11133222,11111222,99999999' 
ADCP,ioos:station:wmo:42377:1,2013-02-01T14:09:00Z,27.2930,-90.9680,21.3,294.0,4.8,-9999.0,'11133222,11111222,99999999' 
ADCP,ioos:station:wmo:42377:1,2013-02-01T14:29:00Z,27.2930,-90.9680,21.3,345.0,3.8,-9999.0,'11133222,11111222,99999999' 
ADCP,ioos:station:wmo:42377:1,2013-02-01T14:49:00Z,27.2930,-90.9680,21.3,352.0,5.2,-9999.0,'11133222,11111222,99999999' 
ADCP,ioos:station:wmo:42377:1,2013-02-01T15:09:00Z,27.2930,-90.9680,21.3,353.0,5.9,-9999.0,'11133222,11111222,99999999' 
ADCP,ioos:station:wmo:42377:1,2013-02-01T15:29:00Z,27.2930,-90.9680,21.3,18.0,6.9,-9999.0,'11133222,11111222,99999999' 
ADCP,ioos:station:wmo:42377:1,2013-02-01T15:49:00Z,27.2930,-90.9680,21.3,354.0,6.0,-9999.0,'11133222,11111222,99999999' 
ADCP,ioos:station:wmo:42377:1,2013-02-01T16:09:00Z,27.2930,-90.9680,21.3,22.0,7.9,-9999.0,'11133222,11111222,99999999' 
ADCP,ioos:station:wmo:42377:1,2013-02-01T16:29:00Z,27.2930,-90.9680,21.3,29.0,9.1,-9999.0,'11133222,11111222,99999999' 
ADCP,ioos:station:wmo:42377:1,2013-02-01T16:49:00Z,27.2930,-90.9680,21.3,36.0,9.5,-9999.0,'11133222,11111222,99999999' 
ADCP,ioos:station:wmo:42377:1,2013-02-01T17:09:00Z,27.2930,-90.9680,21.3,43.0,10.8,-9999.0,'11111222,11111222,99999999' 
ADCP,ioos:station:wmo:42377:1,2013-02-01T17:29:00Z,27.2930,-90.9680,21.3,43.0,10.6,-9999.0,'11111222,11111222,99999999' 
ADCP,ioos:station:wmo:42377:1,2013-02-01T17:49:00Z,27.2930,-90.9680,21.3,55.0,13.3,-9999.0,'11111222,11111222,99999999' 
ADCP,ioos:station:wmo:42377:1,2013-02-01T18:09:00Z,27.2930,-90.9680,21.3,55.0,13.1,-9999.0,'11111222,11111222,99999999' 
ADCP,ioos:station:wmo:42377:1,2013-02-01T18:29:00Z,27.2930,-90.9680,21.3,61.0,12.8,-9999.0,'11111222,11111222,99999999' 
ADCP,ioos:station:wmo:42377:1,2013-02-01T18:49:00Z,27.2930,-90.9680,21.3,65.0,13.7,-9999.0,'11111222,11111222,99999999' 
ADCP,ioos:station:wmo:42377:1,2013-02-01T19:09:00Z,27.2930,-90.9680,21.3,74.0,15.1,-9999.0,'11111222,11111222,99999999' 
ADCP,ioos:station:wmo:42377:1,2013-02-01T19:29:00Z,27.2930,-90.9680,21.3,77.0,17.8,-9999.0,'11111222,11111222,99999999' 
ADCP,ioos:station:wmo:42377:1,2013-02-01T19:49:00Z,27.2930,-90.9680,21.3,79.0,18.1,-9999.0,'11111222,11111222,99999999' 
ADCP,ioos:station:wmo:42377:1,2013-02-01T20:09:00Z,27.2930,-90.9680,21.3,79.0,18.6,-9999.0,'11111222,11111222,99999999' 
ADCP,ioos:station:wmo:42377:1,2013-02-01T20:29:00Z,27.2930,-90.9680,21.3,80.0,18.0,-9999.0,'11111222,11111222,99999999' 
ADCP,ioos:station:wmo:42377:1,2013-02-01T20:49:00Z,27.2930,-90.9680,21.3,81.0,19.0,-9999.0,'11111222,11111222,99999999' 
ADCP,ioos:station:wmo:42377:1,2013-02-01T21:09:00Z,27.2930,-90.9680,21.3,84.0,17.7,-9999.0,'11111222,11111222,99999999' 
ADCP,ioos:station:wmo:42377:1,2013-02-01T21:29:00Z,27.2930,-90.9680,21.3,85.0,18.9,-9999.0,'11111222,11111222,99999999' 
ADCP,ioos:station:wmo:42377:1,2013-02-01T21:49:00Z,27.2930,-90.9680,21.3,86.0,18.8,-9999.0,'11111222,11111222,99999999' 
ADCP,ioos:station:wmo:42377:1,2013-02-01T22:09:00Z,27.2930,-90.9680,21.3,90.0,20.6,-9999.0,'11111222,11111222,99999999' 
ADCP,ioos:station:wmo:42377:1,2013-02-01T22:29:00Z,27.2930,-90.9680,21.3,91.0,19.6,-9999.0,'11111222,11111222,99999999' 
ADCP,ioos:station:wmo:42377:1,2013-02-01T22:49:00Z,27.2930,-90.9680,21.3,93.0,19.6,-9999.0,'11111222,11111222,99999999' 
ADCP,ioos:station:wmo:42377:1,2013-02-01T23:09:00Z,27.2930,-90.9680,21.3,101.0,18.3,-9999.0,'11111222,11111222,99999999' 
ADCP,ioos:station:wmo:42377:1,2013-02-01T23:29:00Z,27.2930,-90.9680,21.3,114.0,15.9,-9999.0,'11111222,11111222,99999999' 
ADCP,ioos:station:wmo:42377:1,2013-02-01T23:49:00Z,27.2930,-90.9680,21.3,124.0,15.1,-9999.0,'11111222,11111222,99999999' 
ADCP,ioos:station:wmo:42377:1,2013-02-02T00:09:00Z,27.2930,-90.9680,21.3,145.0,15.5,-9999.0,'11111222,11111222,99999999' 
ADCP,ioos:station:wmo:42377:1,2013-02-02T00:29:00Z,27.2930,-90.9680,21.3,164.0,17.1,-9999.0,'11111222,11111222,99999999' 
ADCP,ioos:station:wmo:42377:1,2013-02-02T00:49:00Z,27.2930,-90.9680,21.3,175.0,12.7,-9999.0,'11111222,11111222,99999999' 
ADCP,ioos:station:wmo:42377:1,2013-02-02T01:09:00Z,27.2930,-90.9680,21.3,208.0,15.6,-9999.0,'11111222,11111222,99999999' 
ADCP,ioos:station:wmo:42377:1,2013-02-02T01:29:00Z,27.2930,-90.9680,21.3,213.0,17.5,-9999.0,'11111222,11111222,99999999' 
ADCP,ioos:station:wmo:42377:1,2013-02-02T01:49:00Z,27.2930,-90.9680,21.3,221.0,17.6,-9999.0,'11111222,11111222,99999999' 
ADCP,ioos:station:wmo:42377:1,2013-02-02T02:09:00Z,27.2930,-90.9680,21.3,226.0,20.0,-9999.0,'11111222,11111222,99999999' 
ADCP,ioos:station:wmo:42377:1,2013-02-02T02:29:00Z,27.2930,-90.9680,21.3,232.0,17.8,-9999.0,'11111222,11111222,99999999' 
ADCP,ioos:station:wmo:42377:1,2013-02-02T02:49:00Z,27.2930,-90.9680,21.3,235.0,20.9,-9999.0,'11111222,11111222,99999999' 
ADCP,ioos:station:wmo:42377:1,2013-02-02T03:09:00Z,27.2930,-90.9680,21.3,240.0,17.3,-9999.0,'11111222,11111222,99999999' 
ADCP,ioos:station:wmo:42377:1,2013-02-02T03:29:00Z,27.2930,-90.9680,21.3,65.0,17.3,-9999.0,'11111222,11111222,99999999' 
ADCP,ioos:station:wmo:42377:1,2013-02-02T03:49:00Z,27.2930,-90.9680,21.3,77.0,15.3,-9999.0,'11111222,11111222,99999999' 
ADCP,ioos:station:wmo:42377:1,2013-02-02T04:09:00Z,27.2930,-90.9680,21.3,83.0,23.6,-9999.0,'11111222,11111222,99999999' 
ADCP,ioos:station:wmo:42377:1,2013-02-02T04:29:00Z,27.2930,-90.9680,21.3,80.0,18.6,-9999.0,'11111222,11111222,99999999' 
ADCP,ioos:station:wmo:42377:1,2013-02-02T04:49:00Z,27.2930,-90.9680,21.3,84.0,20.8,-9999.0,'11111222,11111222,99999999' 
ADCP,ioos:station:wmo:42377:1,2013-02-02T05:09:00Z,27.2930,-90.9680,21.3,82.0,27.4,-9999.0,'11111222,11111222,99999999' 
ADCP,ioos:station:wmo:42377:1,2013-02-02T05:29:00Z,27.2930,-90.9680,21.3,95.0,29.3,-9999.0,'11111222,11111222,99999999' 
ADCP,ioos:station:wmo:42377:1,2013-02-02T05:49:00Z,27.2930,-90.9680,21.3,108.0,24.9,-9999.0,'11111222,11111222,99999999' 
ADCP,ioos:station:wmo:42377:1,2013-02-02T06:09:00Z,27.2930,-90.9680,21.3,109.0,23.9,-9999.0,'11111222,11111222,99999999' 
ADCP,ioos:station:wmo:42377:1,2013-02-02T06:29:00Z,27.2930,-90.9680,21.3,102.0,23.6,-9999.0,'11111222,11111222,99999999' 
ADCP,ioos:station:wmo:42377:1,2013-02-02T06:49:00Z,27.2930,-90.9680,21.3,99.0,22.0,-9999.0,'11111222,11111222,99999999' 
ADCP,ioos:station:wmo:42377:1,2013-02-02T07:09:00Z,27.2930,-90.9680,21.3,101.0,22.7,-9999.0,'11111222,11111222,99999999' 
ADCP,ioos:station:wmo:42377:1,2013-02-02T07:29:00Z,27.2930,-90.9680,21.3,118.0,17.2,-9999.0,'11111222,11111222,99999999' 
ADCP,ioos:station:wmo:42377:1,2013-02-02T07:49:00Z,27.2930,-90.9680,21.3,157.0,16.0,-9999.0,'11111222,11111222,99999999' 
ADCP,ioos:station:wmo:42377:1,2013-02-02T08:09:00Z,27.2930,-90.9680,21.3,168.0,14.4,-9999.0,'11111222,11111222,99999999' 
ADCP,ioos:station:wmo:42377:1,2013-02-02T08:29:00Z,27.2930,-90.9680,21.3,180.0,17.0,-9999.0,'11111222,11111222,99999999' 
ADCP,ioos:station:wmo:42377:1,2013-02-02T08:49:00Z,27.2930,-90.9680,21.3,191.0,19.1,-9999.0,'11111222,11111222,99999999' 
ADCP,ioos:station:wmo:42377:1,2013-02-02T09:09:00Z,27.2930,-90.9680,21.3,199.0,20.1,-9999.0,'11111222,11111222,99999999' 
ADCP,ioos:station:wmo:42377:1,2013-02-02T09:29:00Z,27.2930,-90.9680,21.3,195.0,19.0,-9999.0,'11111222,11111222,99999999' 
ADCP,ioos:station:wmo:42377:1,2013-02-02T09:49:00Z,27.2930,-90.9680,21.3,215.0,32.5,-9999.0,'11111222,11111222,99999999' 
ADCP,ioos:station:wmo:42377:1,2013-02-02T10:09:00Z,27.2930,-90.9680,21.3,217.0,34.5,-9999.0,'11111222,11111222,99999999' 
ADCP,ioos:station:wmo:42377:1,2013-02-02T10:29:00Z,27.2930,-90.9680,21.3,217.0,33.1,-9999.0,'11111222,11111222,99999999' 
ADCP,ioos:station:wmo:42377:1,2013-02-02T10:49:00Z,27.2930,-90.9680,21.3,217.0,32.7,-9999.0,'11111222,11111222,99999999' 
ADCP,ioos:station:wmo:42377:1,2013-02-02T11:09:00Z,27.2930,-90.9680,21.3,218.0,32.3,-9999.0,'11111222,11111222,99999999' 
ADCP,ioos:station:wmo:42377:1,2013-02-02T11:29:00Z,27.2930,-90.9680,21.3,219.0,31.6,-9999.0,'11111222,11111222,99999999' 
ADCP,ioos:station:wmo:42377:1,2013-02-02T11:49:00Z,27.2930,-90.9680,21.3,218.0,29.1,-9999.0,'11111222,11111222,99999999' 
ADCP,ioos:station:wmo:42377:1,2013-02-02T12:09:00Z,27.2930,-90.9680,21.3,221.0,28.8,-9999.0,'11111222,11111222,99999999' 
ADCP,ioos:station:wmo:42377:1,2013-02-02T12:29:00Z,27.2930,-90.9680,21.3,224.0,27.1,-9999.0,'11111222,11111222,99999999' 
ADCP,ioos:station:wmo:42377:1,2013-02-02T12:49:00Z,27.2930,-90.9680,21.3,225.0,28.4,-9999.0,'11111222,11111222,99999999' 
ADCP,ioos:station:wmo:42377:1,2013-02-02T13:09:00Z,27.2930,-90.9680,21.3,225.0,27.7,-9999.0,'11111222,11111222,99999999' 
ADCP,ioos:station:wmo:42377:1,2013-02-02T13:29:00Z,27.2930,-90.9680,21.3,228.0,28.4,-9999.0,'11111222,11111222,99999999' 
ADCP,ioos:station:wmo:42377:1,2013-02-02T13:49:00Z,27.2930,-90.9680,21.3,232.0,30.0,-9999.0,'11111222,11111222,99999999' 
ADCP,ioos:station:wmo:42377:1,2013-02-02T14:09:00Z,27.2930,-90.9680,21.3,234.0,29.2,-9999.0,'11111222,11111222,99999999' 
ADCP,ioos:station:wmo:42377:1,2013-02-02T14:29:00Z,27.2930,-90.9680,21.3,232.0,25.6,-9999.0,'11111222,11111222,99999999' 
ADCP,ioos:station:wmo:42377:1,2013-02-02T14:49:00Z,27.2930,-90.9680,21.3,235.0,27.2,-9999.0,'11111222,11111222,99999999' 
ADCP,ioos:station:wmo:42377:1,2013-02-02T15:09:00Z,27.2930,-90.9680,21.3,236.0,25.4,-9999.0,'11111222,11111222,99999999' 
ADCP,ioos:station:wmo:42377:1,2013-02-02T15:29:00Z,27.2930,-90.9680,21.3,237.0,25.8,-9999.0,'11111222,11111222,99999999' 
ADCP,ioos:station:wmo:42377:1,2013-02-02T15:49:00Z,27.2930,-90.9680,21.3,239.0,22.4,-9999.0,'11111222,11111222,99999999' 
ADCP,ioos:station:wmo:42377:1,2013-02-02T16:09:00Z,27.2930,-90.9680,21.3,240.0,22.1,-9999.0,'11111222,11111222,99999999' 
ADCP,ioos:station:wmo:42377:1,2013-02-02T16:29:00Z,27.2930,-90.9680,21.3,244.0,20.2,-9999.0,'11111222,11111222,99999999' 
ADCP,ioos:station:wmo:42377:1,2013-02-02T16:49:00Z,27.2930,-90.9680,21.3,246.0,20.0,-9999.0,'11111222,11111222,99999999' 
ADCP,ioos:station:wmo:42377:1,2013-02-02T17:09:00Z,27.2930,-90.9680,21.3,247.0,20.2,-9999.0,'11111222,11111222,99999999' 
ADCP,ioos:station:wmo:42377:1,2013-02-02T17:29:00Z,27.2930,-90.9680,21.3,248.0,17.9,-9999.0,'11111222,11111222,99999999' 
ADCP,ioos:station:wmo:42377:1,2013-02-02T17:49:00Z,27.2930,-90.9680,21.3,248.0,15.6,-9999.0,'11111222,11111222,99999999' 
ADCP,ioos:station:wmo:42377:1,2013-02-02T18:09:00Z,27.2930,-90.9680,21.3,247.0,15.4,-9999.0,'11111222,11111222,99999999' 
ADCP,ioos:station:wmo:42377:1,2013-02-02T18:29:00Z,27.2930,-90.9680,21.3,250.0,15.6,-9999.0,'11111222,11111222,99999999' 
ADCP,ioos:station:wmo:42377:1,2013-02-02T18:49:00Z,27.2930,-90.9680,21.3,250.0,13.3,-9999.0,'11111222,11111222,99999999' 
ADCP,ioos:station:wmo:42377:1,2013-02-02T19:09:00Z,27.2930,-90.9680,21.3,250.0,12.4,-9999.0,'11111222,11111222,99999999' 
ADCP,ioos:station:wmo:42377:1,2013-02-02T19:29:00Z,27.2930,-90.9680,21.3,251.0,12.1,-9999.0,'11111222,11111222,99999999' 
ADCP,ioos:station:wmo:42377:1,2013-02-02T19:49:00Z,27.2930,-90.9680,21.3,250.0,12.4,-9999.0,'11111222,11111222,99999999' 
ADCP,ioos:station:wmo:42377:1,2013-02-02T20:09:00Z,27.2930,-90.9680,21.3,248.0,12.2,-9999.0,'11111222,11111222,99999999' 
ADCP,ioos:station:wmo:42377:1,2013-02-02T20:29:00Z,27.2930,-90.9680,21.3,250.0,11.4,-9999.0,'11111222,11111222,99999999' 
ADCP,ioos:station:wmo:42377:1,2013-02-02T20:49:00Z,27.2930,-90.9680,21.3,250.0,10.2,-9999.0,'11111222,11111222,99999999' 
ADCP,ioos:station:wmo:42377:1,2013-02-02T21:09:00Z,27.2930,-90.9680,21.3,248.0,10.3,-9999.0,'11111222,11111222,99999999' 
ADCP,ioos:station:wmo:42377:1,2013-02-02T21:29:00Z,27.2930,-90.9680,21.3,241.0,8.8,-9999.0,'11133222,11111222,99999999' 
ADCP,ioos:station:wmo:42377:1,2013-02-02T21:49:00Z,27.2930,-90.9680,21.3,235.0,7.5,-9999.0,'11133222,11111222,99999999' 
ADCP,ioos:station:wmo:42377:1,2013-02-02T22:09:00Z,27.2930,-90.9680,21.3,225.0,7.1,-9999.0,'11133222,11111222,99999999' 
ADCP,ioos:station:wmo:42377:1,2013-02-02T22:29:00Z,27.2930,-90.9680,21.3,218.0,6.5,-9999.0,'11133222,11111222,99999999' 
ADCP,ioos:station:wmo:42377:1,2013-02-02T22:49:00Z,27.2930,-90.9680,21.3,194.0,5.5,-9999.0,'11133222,11111222,99999999' 
ADCP,ioos:station:wmo:42377:1,2013-02-02T23:09:00Z,27.2930,-90.9680,21.3,194.0,6.1,-9999.0,'11133222,11111222,99999999' 
ADCP,ioos:station:wmo:42377:1,2013-02-02T23:29:00Z,27.2930,-90.9680,21.3,160.0,5.1,-9999.0,'11133222,11111222,99999999' 
ADCP,ioos:station:wmo:42377:1,2013-02-02T23:49:00Z,27.2930,-90.9680,21.3,163.0,6.9,-9999.0,'11133222,11111222,99999999' 
ADCP,ioos:station:wmo:42377:1,2013-02-03T00:09:00Z,27.2930,-90.9680,21.3,154.0,8.9,-9999.0,'11133222,11111222,99999999' 
ADCP,ioos:station:wmo:42377:1,2013-02-03T00:29:00Z,27.2930,-90.9680,21.3,156.0,8.7,-9999.0,'11133222,11111222,99999999' 
ADCP,ioos:station:wmo:42377:1,2013-02-03T00:49:00Z,27.2930,-90.9680,21.3,170.0,10.1,-9999.0,'11111222,11111222,99999999' 
ADCP,ioos:station:wmo:42377:1,2013-02-03T01:09:00Z,27.2930,-90.9680,21.3,128.0,9.9,-9999.0,'11133222,11111222,99999999' 
ADCP,ioos:station:wmo:42377:1,2013-02-03T01:29:00Z,27.2930,-90.9680,21.3,145.0,10.1,-9999.0,'11111222,11111222,99999999' 
ADCP,ioos:station:wmo:42377:1,2013-02-03T01:49:00Z,27.2930,-90.9680,21.3,126.0,11.7,-9999.0,'11111222,11111222,99999999' 
ADCP,ioos:station:wmo:42377:1,2013-02-03T02:09:00Z,27.2930,-90.9680,21.3,111.0,11.6,-9999.0,'11111222,11111222,99999999' 
ADCP,ioos:station:wmo:42377:1,2013-02-03T02:29:00Z,27.2930,-90.9680,21.3,109.0,12.6,-9999.0,'11111222,11111222,99999999' 
ADCP,ioos:station:wmo:42377:1,2013-02-03T02:49:00Z,27.2930,-90.9680,21.3,112.0,10.9,-9999.0,'11111222,11111222,99999999' 
ADCP,ioos:station:wmo:42377:1,2013-02-03T03:09:00Z,27.2930,-90.9680,21.3,134.0,10.9,-9999.0,'11111222,11111222,99999999' 
ADCP,ioos:station:wmo:42377:1,2013-02-03T03:29:00Z,27.2930,-90.9680,21.3,109.0,11.8,-9999.0,'11111222,11111222,99999999' 
ADCP,ioos:station:wmo:42377:1,2013-02-03T03:49:00Z,27.2930,-90.9680,21.3,113.0,14.0,-9999.0,'11111222,11111222,99999999' 
ADCP,ioos:station:wmo:42377:1,2013-02-03T04:09:00Z,27.2930,-90.9680,21.3,110.0,16.0,-9999.0,'11111222,11111222,99999999' 
ADCP,ioos:station:wmo:42377:1,2013-02-03T04:29:00Z,27.2930,-90.9680,21.3,97.0,18.4,-9999.0,'11111222,11111222,99999999' 
ADCP,ioos:station:wmo:42377:1,2013-02-03T04:49:00Z,27.2930,-90.9680,21.3,101.0,15.4,-9999.0,'11111222,11111222,99999999' 
ADCP,ioos:station:wmo:42377:1,2013-02-03T05:09:00Z,27.2930,-90.9680,21.3,107.0,14.7,-9999.0,'11111222,11111222,99999999' 
ADCP,ioos:station:wmo:42377:1,2013-02-03T05:29:00Z,27.2930,-90.9680,21.3,118.0,14.0,-9999.0,'11111222,11111222,99999999' 
ADCP,ioos:station:wmo:42377:1,2013-02-03T05:49:00Z,27.2930,-90.9680,21.3,155.0,13.0,-9999.0,'11111222,11111222,99999999' 
ADCP,ioos:station:wmo:42377:1,2013-02-03T06:09:00Z,27.2930,-90.9680,21.3,169.0,13.6,-9999.0,'11111222,11111222,99999999' 
ADCP,ioos:station:wmo:42377:1,2013-02-03T06:29:00Z,27.2930,-90.9680,21.3,169.0,13.9,-9999.0,'11111222,11111222,99999999' 
ADCP,ioos:station:wmo:42377:1,2013-02-03T06:49:00Z,27.2930,-90.9680,21.3,182.0,15.7,-9999.0,'11111222,11111222,99999999' 
ADCP,ioos:station:wmo:42377:1,2013-02-03T07:09:00Z,27.2930,-90.9680,21.3,191.0,17.6,-9999.0,'11111222,11111222,99999999' 
ADCP,ioos:station:wmo:42377:1,2013-02-03T07:29:00Z,27.2930,-90.9680,21.3,191.0,17.5,-9999.0,'11111222,11111222,99999999' 
ADCP,ioos:station:wmo:42377:1,2013-02-03T07:49:00Z,27.2930,-90.9680,21.3,190.0,17.3,-9999.0,'11111222,11111222,99999999' 
ADCP,ioos:station:wmo:42377:1,2013-02-03T08:09:00Z,27.2930,-90.9680,21.3,192.0,18.6,-9999.0,'11111222,11111222,99999999' 
ADCP,ioos:station:wmo:42377:1,2013-02-03T08:29:00Z,27.2930,-90.9680,21.3,180.0,16.6,-9999.0,'11111222,11111222,99999999' 
ADCP,ioos:station:wmo:42377:1,2013-02-03T08:49:00Z,27.2930,-90.9680,21.3,178.0,16.9,-9999.0,'11111222,11111222,99999999' 
ADCP,ioos:station:wmo:42377:1,2013-02-03T09:09:00Z,27.2930,-90.9680,21.3,152.0,17.9,-9999.0,'11111222,11111222,99999999' 
ADCP,ioos:station:wmo:42377:1,2013-02-03T09:29:00Z,27.2930,-90.9680,21.3,187.0,22.9,-9999.0,'11111222,11111222,99999999' 
ADCP,ioos:station:wmo:42377:1,2013-02-03T09:49:00Z,27.2930,-90.9680,21.3,182.0,20.9,-9999.0,'11111222,11111222,99999999' 
ADCP,ioos:station:wmo:42377:1,2013-02-03T10:09:00Z,27.2930,-90.9680,21.3,190.0,23.8,-9999.0,'11111222,11111222,99999999' 
ADCP,ioos:station:wmo:42377:1,2013-02-03T10:29:00Z,27.2930,-90.9680,21.3,189.0,23.5,-9999.0,'11111222,11111222,99999999' 
ADCP,ioos:station:wmo:42377:1,2013-02-03T10:49:00Z,27.2930,-90.9680,21.3,184.0,22.5,-9999.0,'11111222,11111222,99999999' 
ADCP,ioos:station:wmo:42377:1,2013-02-03T11:09:00Z,27.2930,-90.9680,21.3,183.0,21.8,-9999.0,'11111222,11111222,99999999' 
ADCP,ioos:station:wmo:42377:1,2013-02-03T11:29:00Z,27.2930,-90.9680,21.3,183.0,20.3,-9999.0,'11111222,11111222,99999999' 
ADCP,ioos:station:wmo:42377:1,2013-02-03T11:49:00Z,27.2930,-90.9680,21.3,189.0,20.1,-9999.0,'11111222,11111222,99999999' 
ADCP,ioos:station:wmo:42377:1,2013-02-03T12:09:00Z,27.2930,-90.9680,21.3,190.0,20.1,-9999.0,'11111222,11111222,99999999' 
ADCP,ioos:station:wmo:42377:1,2013-02-03T12:29:00Z,27.2930,-90.9680,21.3,183.0,18.1,-9999.0,'11111222,11111222,99999999' 
ADCP,ioos:station:wmo:42377:1,2013-02-03T12:49:00Z,27.2930,-90.9680,21.3,180.0,16.8,-9999.0,'11111222,11111222,99999999' 
ADCP,ioos:station:wmo:42377:1,2013-02-03T13:09:00Z,27.2930,-90.9680,21.3,181.0,16.5,-9999.0,'11111222,11111222,99999999' 
ADCP,ioos:station:wmo:42377:1,2013-02-03T13:29:00Z,27.2930,-90.9680,21.3,183.0,14.5,-9999.0,'11111222,11111222,99999999' 
ADCP,ioos:station:wmo:42377:1,2013-02-03T13:49:00Z,27.2930,-90.9680,21.3,204.0,17.2,-9999.0,'11111222,11111222,99999999' 
ADCP,ioos:station:wmo:42377:1,2013-02-03T14:09:00Z,27.2930,-90.9680,21.3,206.0,13.9,-9999.0,'11111222,11111222,99999999' 
ADCP,ioos:station:wmo:42377:1,2013-02-03T14:29:00Z,27.2930,-90.9680,21.3,206.0,13.0,-9999.0,'11111222,11111222,99999999' 
ADCP,ioos:station:wmo:42377:1,2013-02-03T14:49:00Z,27.2930,-90.9680,21.3,201.0,11.4,-9999.0,'11111222,11111222,99999999' 
ADCP,ioos:station:wmo:42377:1,2013-02-03T15:09:00Z,27.2930,-90.9680,21.3,209.0,10.7,-9999.0,'11111222,11111222,99999999' 
ADCP,ioos:station:wmo:42377:1,2013-02-03T15:29:00Z,27.2930,-90.9680,21.3,210.0,10.3,-9999.0,'11111222,11111222,99999999' 
ADCP,ioos:station:wmo:42377:1,2013-02-03T15:49:00Z,27.2930,-90.9680,21.3,218.0,8.3,-9999.0,'11133222,11111222,99999999' 
ADCP,ioos:station:wmo:42377:1,2013-02-03T16:09:00Z,27.2930,-90.9680,21.3,217.0,7.1,-9999.0,'11133222,11111222,99999999' 
ADCP,ioos:station:wmo:42377:1,2013-02-03T16:29:00Z,27.2930,-90.9680,21.3,208.0,5.7,-9999.0,'11133222,11111222,99999999' 
ADCP,ioos:station:wmo:42377:1,2013-02-03T16:49:00Z,27.2930,-90.9680,21.3,215.0,6.3,-9999.0,'11133222,11111222,99999999' 
ADCP,ioos:station:wmo:42377:1,2013-02-03T17:09:00Z,27.2930,-90.9680,21.3,222.0,5.2,-9999.0,'11133222,11111222,99999999' 